Time,TemperatureF,DewpointF,PressureIn,WindDirection,WindDirectionDegrees,WindSpeedMPH,WindSpeedGustMPH,Humidity,HourlyPrecipIn,Conditions,Clouds,dailyrainin,SoftwareType,DateUTC
2013-01-03 00:03:00,23.0,16.0,30.08,West,268,3.0,12.0,73,0.00,,,0.00,,2013-01-03 05:03:00,
2013-01-03 00:12:00,23.0,16.0,30.08,West,268,3.0,12.0,73,0.00,,,0.00,,2013-01-03 05:12:00,
2013-01-03 00:23:00,23.0,16.0,30.07,WSW,240,4.0,10.0,73,0.00,,,0.00,,2013-01-03 05:23:00,
2013-01-03 00:33:00,22.0,15.0,30.07,WSW,248,0.0,12.0,75,0.00,,,0.00,,2013-01-03 05:33:00,
2013-01-03 00:42:00,22.0,15.0,30.07,WSW,248,0.0,12.0,75,0.00,,,0.00,,2013-01-03 05:42:00,
2013-01-03 00:53:00,22.0,15.0,30.06,SW,234,4.0,8.0,74,0.00,,,0.00,,2013-01-03 05:53:00,
2013-01-03 01:02:00,22.0,15.0,30.06,SW,221,6.0,12.0,75,0.00,,,0.00,,2013-01-03 06:02:00,
2013-01-03 01:12:00,22.0,15.0,30.06,SW,221,6.0,12.0,75,0.00,,,0.00,,2013-01-03 06:12:00,
2013-01-03 01:22:00,22.0,15.0,30.06,West,277,4.0,8.0,75,0.00,,,0.00,,2013-01-03 06:22:00,
2013-01-03 01:33:00,21.0,14.0,30.06,SSW,207,2.0,6.0,75,0.00,,,0.00,,2013-01-03 06:33:00,
2013-01-03 01:42:00,21.0,14.0,30.06,SSW,207,2.0,6.0,75,0.00,,,0.00,,2013-01-03 06:42:00,
2013-01-03 01:53:00,21.0,15.0,30.06,SSW,203,2.0,11.0,76,0.00,,,0.00,,2013-01-03 06:53:00,
2013-01-03 02:02:00,21.0,14.0,30.06,West,261,2.0,8.0,75,0.00,,,0.00,,2013-01-03 07:02:00,
2013-01-03 02:12:00,21.0,14.0,30.06,West,261,2.0,8.0,75,0.00,,,0.00,,2013-01-03 07:12:00,
2013-01-03 02:22:00,21.0,15.0,30.06,SW,235,3.0,6.0,76,0.00,,,0.00,,2013-01-03 07:22:00,
2013-01-03 02:33:00,21.0,15.0,30.06,SSW,194,2.0,7.0,77,0.00,,,0.00,,2013-01-03 07:33:00,
2013-01-03 02:42:00,21.0,15.0,30.06,SSW,194,2.0,7.0,77,0.00,,,0.00,,2013-01-03 07:42:00,
2013-01-03 02:53:00,21.0,15.0,30.05,West,260,1.0,5.0,77,0.00,,,0.00,,2013-01-03 07:53:00,
2013-01-03 03:02:00,21.0,15.0,30.05,SW,222,3.0,5.0,78,0.00,,,0.00,,2013-01-03 08:02:00,
2013-01-03 03:12:00,21.0,15.0,30.05,SW,222,3.0,5.0,78,0.00,,,0.00,,2013-01-03 08:12:00,
2013-01-03 03:22:00,21.0,16.0,30.05,WSW,256,5.0,8.0,79,0.00,,,0.00,,2013-01-03 08:22:00,
2013-01-03 03:33:00,21.0,16.0,30.04,WSW,250,1.0,7.0,79,0.00,,,0.00,,2013-01-03 08:33:00,
2013-01-03 03:43:00,21.0,16.0,30.04,WSW,250,1.0,7.0,79,0.00,,,0.00,,2013-01-03 08:43:00,
2013-01-03 03:53:00,21.0,16.0,30.04,WSW,254,2.0,8.0,80,0.00,,,0.00,,2013-01-03 08:53:00,
2013-01-03 04:02:00,21.0,16.0,30.04,West,264,3.0,5.0,81,0.00,,,0.00,,2013-01-03 09:02:00,
2013-01-03 04:12:00,21.0,16.0,30.04,West,264,3.0,5.0,81,0.00,,,0.00,,2013-01-03 09:12:00,
2013-01-03 04:22:00,21.0,16.0,30.03,WSW,249,1.0,7.0,81,0.00,,,0.00,,2013-01-03 09:22:00,
2013-01-03 04:33:00,21.0,16.0,30.03,WSW,241,0.0,5.0,82,0.00,,,0.00,,2013-01-03 09:33:00,
2013-01-03 04:43:00,21.0,16.0,30.03,WSW,241,0.0,5.0,82,0.00,,,0.00,,2013-01-03 09:43:00,
2013-01-03 04:52:00,22.0,17.0,30.03,WSW,247,3.0,4.0,82,0.00,,,0.00,,2013-01-03 09:52:00,
2013-01-03 05:02:00,22.0,18.0,30.02,WSW,255,2.0,5.0,83,0.00,,,0.00,,2013-01-03 10:02:00,
2013-01-03 05:12:00,22.0,18.0,30.02,WSW,255,2.0,5.0,83,0.00,,,0.00,,2013-01-03 10:12:00,
2013-01-03 05:23:00,22.0,18.0,30.01,West,274,0.0,6.0,83,0.00,,,0.00,,2013-01-03 10:23:00,
2013-01-03 05:33:00,22.0,18.0,30.01,WSW,252,1.0,5.0,84,0.00,,,0.00,,2013-01-03 10:33:00,
2013-01-03 05:43:00,22.0,18.0,30.01,WSW,252,1.0,5.0,84,0.00,,,0.00,,2013-01-03 10:43:00,
2013-01-03 05:52:00,22.0,18.0,30.01,SW,229,1.0,9.0,85,0.00,,,0.00,,2013-01-03 10:52:00,
2013-01-03 06:02:00,22.0,18.0,30.00,West,266,0.0,6.0,85,0.00,,,0.00,,2013-01-03 11:02:00,
2013-01-03 06:12:00,22.0,18.0,30.00,West,266,0.0,6.0,85,0.00,,,0.00,,2013-01-03 11:12:00,
2013-01-03 06:23:00,22.0,18.0,30.01,West,277,1.0,5.0,85,0.00,,,0.00,,2013-01-03 11:23:00,
2013-01-03 06:33:00,22.0,18.0,30.00,WSW,248,1.0,4.0,86,0.00,,,0.00,,2013-01-03 11:33:00,
2013-01-03 06:43:00,22.0,18.0,30.00,WSW,248,1.0,4.0,86,0.00,,,0.00,,2013-01-03 11:43:00,
2013-01-03 06:53:00,22.0,18.0,30.00,WNW,294,0.0,5.0,86,0.00,,,0.00,,2013-01-03 11:53:00,
2013-01-03 07:03:00,22.0,19.0,30.00,West,259,1.0,5.0,87,0.00,,,0.00,,2013-01-03 12:03:00,
2013-01-03 07:12:00,22.0,19.0,30.00,West,259,1.0,5.0,87,0.00,,,0.00,,2013-01-03 12:12:00,
2013-01-03 07:22:00,23.0,20.0,30.01,West,265,0.0,4.0,87,0.00,,,0.00,,2013-01-03 12:22:00,
2013-01-03 07:33:00,23.0,20.0,30.01,SW,223,0.0,1.0,87,0.00,,,0.00,,2013-01-03 12:33:00,
2013-01-03 07:42:00,23.0,20.0,30.01,SW,223,0.0,1.0,87,0.00,,,0.00,,2013-01-03 12:42:00,
2013-01-03 07:53:00,23.0,20.0,30.01,SW,223,0.0,0.0,87,0.00,,,0.00,,2013-01-03 12:53:00,
2013-01-03 08:02:00,23.0,20.0,30.02,SW,223,0.0,1.0,87,0.00,,,0.00,,2013-01-03 13:02:00,
2013-01-03 08:13:00,23.0,20.0,30.02,SW,223,0.0,1.0,87,0.00,,,0.00,,2013-01-03 13:13:00,
2013-01-03 08:22:00,23.0,20.0,30.02,SW,223,1.0,2.0,87,0.00,,,0.00,,2013-01-03 13:22:00,
2013-01-03 08:33:00,23.0,20.0,30.02,SW,223,2.0,3.0,87,0.00,,,0.00,,2013-01-03 13:33:00,
2013-01-03 08:42:00,23.0,20.0,30.02,SW,223,2.0,3.0,87,0.00,,,0.00,,2013-01-03 13:42:00,
2013-01-03 08:52:00,23.0,20.0,30.03,SW,223,0.0,2.0,87,0.00,,,0.00,,2013-01-03 13:52:00,
2013-01-03 09:03:00,23.0,20.0,30.03,SW,223,1.0,2.0,87,0.00,,,0.00,,2013-01-03 14:03:00,
2013-01-03 09:12:00,23.0,20.0,30.03,SW,223,1.0,2.0,87,0.00,,,0.00,,2013-01-03 14:12:00,
2013-01-03 09:23:00,23.0,20.0,30.04,SW,223,0.0,0.0,87,0.00,,,0.00,,2013-01-03 14:23:00,
2013-01-03 09:33:00,23.0,20.0,30.04,SW,223,0.0,0.0,88,0.00,,,0.00,,2013-01-03 14:33:00,
2013-01-03 09:43:00,23.0,20.0,30.04,SW,223,0.0,0.0,88,0.00,,,0.00,,2013-01-03 14:43:00,
2013-01-03 09:53:00,24.0,21.0,30.04,SW,223,0.0,1.0,88,0.00,,,0.00,,2013-01-03 14:53:00,
2013-01-03 10:03:00,24.0,21.0,30.04,SW,223,0.0,1.0,88,0.00,,,0.00,,2013-01-03 15:03:00,
2013-01-03 10:12:00,24.0,21.0,30.04,SW,223,0.0,1.0,88,0.00,,,0.00,,2013-01-03 15:12:00,
2013-01-03 10:23:00,24.0,21.0,30.05,SW,223,0.0,2.0,88,0.00,,,0.00,,2013-01-03 15:23:00,
2013-01-03 10:33:00,24.0,21.0,30.05,SW,236,0.0,2.0,88,0.00,,,0.00,,2013-01-03 15:33:00,
2013-01-03 10:43:00,24.0,21.0,30.05,SW,236,0.0,2.0,88,0.00,,,0.00,,2013-01-03 15:43:00,
2013-01-03 10:53:00,25.0,22.0,30.05,SW,236,0.0,3.0,88,0.00,,,0.00,,2013-01-03 15:53:00,
2013-01-03 11:03:00,25.0,22.0,30.05,West,269,0.0,4.0,88,0.00,,,0.00,,2013-01-03 16:03:00,
2013-01-03 11:12:00,25.0,22.0,30.05,West,269,0.0,4.0,88,0.00,,,0.00,,2013-01-03 16:12:00,
2013-01-03 11:22:00,26.0,23.0,30.06,NW,318,3.0,5.0,87,0.00,,,0.00,,2013-01-03 16:22:00,
2013-01-03 11:33:00,26.0,22.0,30.06,WNW,292,0.0,4.0,86,0.00,,,0.00,,2013-01-03 16:33:00,
2013-01-03 11:43:00,26.0,22.0,30.06,WNW,292,0.0,4.0,86,0.00,,,0.00,,2013-01-03 16:43:00,
2013-01-03 11:53:00,27.0,23.0,30.06,WSW,257,2.0,5.0,85,0.00,,,0.00,,2013-01-03 16:53:00,
2013-01-03 12:03:00,27.0,23.0,30.05,NNW,345,2.0,4.0,84,0.00,,,0.00,,2013-01-03 17:03:00,
2013-01-03 12:13:00,27.0,23.0,30.05,NNW,345,2.0,4.0,84,0.00,,,0.00,,2013-01-03 17:13:00,
2013-01-03 12:23:00,27.0,23.0,30.05,NW,326,3.0,8.0,84,0.00,,,0.00,,2013-01-03 17:23:00,
2013-01-03 12:33:00,27.0,23.0,30.05,North,355,1.0,11.0,83,0.00,,,0.00,,2013-01-03 17:33:00,
2013-01-03 12:43:00,27.0,23.0,30.05,North,355,1.0,11.0,83,0.00,,,0.00,,2013-01-03 17:43:00,
2013-01-03 12:53:00,27.0,23.0,30.05,NNW,329,1.0,4.0,83,0.00,,,0.00,,2013-01-03 17:53:00,
2013-01-03 13:03:00,27.0,23.0,30.05,NNE,30,3.0,9.0,83,0.00,,,0.00,,2013-01-03 18:03:00,
2013-01-03 13:13:00,27.0,23.0,30.05,NNE,30,3.0,9.0,83,0.00,,,0.00,,2013-01-03 18:13:00,
2013-01-03 13:22:00,27.0,22.0,30.05,NNW,346,3.0,11.0,82,0.00,,,0.00,,2013-01-03 18:22:00,
2013-01-03 13:33:00,27.0,23.0,30.05,NW,309,1.0,4.0,83,0.00,,,0.00,,2013-01-03 18:33:00,
2013-01-03 13:43:00,27.0,23.0,30.05,NW,309,1.0,4.0,83,0.00,,,0.00,,2013-01-03 18:43:00,
2013-01-03 13:53:00,27.0,22.0,30.05,NNW,340,3.0,8.0,82,0.00,,,0.00,,2013-01-03 18:53:00,
2013-01-03 14:03:00,27.0,22.0,30.05,NNW,348,0.0,5.0,82,0.00,,,0.00,,2013-01-03 19:03:00,
2013-01-03 14:12:00,27.0,22.0,30.05,NNW,348,0.0,5.0,82,0.00,,,0.00,,2013-01-03 19:12:00,
2013-01-03 14:56:00,27.0,22.0,30.05,North,355,1.0,4.0,82,0.00,,,0.00,,2013-01-03 19:56:00,
2013-01-03 15:03:00,27.0,22.0,30.06,NW,319,1.0,8.0,82,0.00,,,0.00,,2013-01-03 20:03:00,
2013-01-03 15:13:00,27.0,22.0,30.06,NW,319,1.0,8.0,82,0.00,,,0.00,,2013-01-03 20:13:00,
2013-01-03 15:22:00,27.0,22.0,30.07,NW,324,2.0,5.0,82,0.00,,,0.00,,2013-01-03 20:22:00,
2013-01-03 15:33:00,27.0,22.0,30.07,North,5,3.0,6.0,82,0.00,,,0.00,,2013-01-03 20:33:00,
2013-01-03 15:42:00,27.0,22.0,30.07,North,5,3.0,6.0,82,0.00,,,0.00,,2013-01-03 20:42:00,
2013-01-03 15:53:00,27.0,22.0,30.07,NW,322,1.0,6.0,81,0.00,,,0.00,,2013-01-03 20:53:00,
2013-01-03 16:02:00,27.0,22.0,30.08,North,355,1.0,6.0,82,0.00,,,0.00,,2013-01-03 21:02:00,
2013-01-03 16:13:00,27.0,22.0,30.08,North,355,1.0,6.0,82,0.00,,,0.00,,2013-01-03 21:13:00,
2013-01-03 16:23:00,27.0,22.0,30.09,WNW,285,0.0,3.0,82,0.00,,,0.00,,2013-01-03 21:23:00,
2013-01-03 16:36:00,27.0,22.0,30.09,NNW,348,0.0,4.0,82,0.00,,,0.00,,2013-01-03 21:36:00,
2013-01-03 16:49:00,27.0,22.0,30.09,NNW,348,0.0,4.0,82,0.00,,,0.00,,2013-01-03 21:49:00,
2013-01-03 17:03:00,27.0,22.0,30.09,NW,309,0.0,5.0,82,0.00,,,0.00,,2013-01-03 22:03:00,
2013-01-03 17:12:00,27.0,22.0,30.09,NW,309,0.0,5.0,82,0.00,,,0.00,,2013-01-03 22:12:00,
2013-01-03 17:22:00,27.0,22.0,30.10,WNW,302,0.0,5.0,82,0.00,,,0.00,,2013-01-03 22:22:00,
2013-01-03 17:33:00,27.0,22.0,30.11,WNW,292,1.0,5.0,82,0.00,,,0.00,,2013-01-03 22:33:00,
2013-01-03 17:42:00,27.0,22.0,30.11,WNW,292,1.0,5.0,82,0.00,,,0.00,,2013-01-03 22:42:00,
2013-01-03 17:53:00,27.0,23.0,30.11,WNW,300,1.0,3.0,83,0.00,,,0.00,,2013-01-03 22:53:00,
2013-01-03 18:03:00,27.0,23.0,30.11,WNW,300,0.0,2.0,83,0.00,,,0.00,,2013-01-03 23:03:00,
2013-01-03 18:12:00,27.0,23.0,30.11,WNW,300,0.0,2.0,83,0.00,,,0.00,,2013-01-03 23:12:00,
2013-01-03 18:22:00,27.0,23.0,30.12,SSW,194,0.0,2.0,83,0.00,,,0.00,,2013-01-03 23:22:00,
2013-01-03 18:33:00,27.0,23.0,30.12,SSW,194,0.0,2.0,83,0.00,,,0.00,,2013-01-03 23:33:00,
2013-01-03 18:43:00,27.0,23.0,30.12,SSW,194,0.0,2.0,83,0.00,,,0.00,,2013-01-03 23:43:00,
2013-01-03 18:53:00,28.0,24.0,30.12,SSW,195,0.0,2.0,83,0.00,,,0.00,,2013-01-03 23:53:00,
2013-01-03 19:03:00,28.0,24.0,30.13,SSW,207,1.0,3.0,83,0.00,,,0.00,,2013-01-04 00:03:00,
2013-01-03 19:13:00,28.0,24.0,30.13,SSW,207,1.0,3.0,83,0.00,,,0.00,,2013-01-04 00:13:00,
2013-01-03 19:23:00,28.0,24.0,30.13,SSW,207,0.0,1.0,83,0.00,,,0.00,,2013-01-04 00:23:00,
2013-01-03 19:32:00,28.0,24.0,30.13,WSW,252,0.0,2.0,83,0.00,,,0.00,,2013-01-04 00:32:00,
2013-01-03 19:42:00,28.0,24.0,30.13,WSW,252,0.0,2.0,83,0.00,,,0.00,,2013-01-04 00:42:00,
2013-01-03 19:52:00,28.0,24.0,30.13,West,271,0.0,3.0,83,0.00,,,0.00,,2013-01-04 00:52:00,
2013-01-03 20:02:00,28.0,24.0,30.13,WNW,285,0.0,2.0,84,0.00,,,0.00,,2013-01-04 01:02:00,
2013-01-03 20:12:00,28.0,24.0,30.13,WNW,285,0.0,2.0,84,0.00,,,0.00,,2013-01-04 01:12:00,
2013-01-03 20:22:00,28.0,23.0,30.13,NW,308,0.0,4.0,82,0.00,,,0.00,,2013-01-04 01:22:00,
2013-01-03 20:33:00,28.0,23.0,30.13,WNW,299,0.0,5.0,82,0.00,,,0.00,,2013-01-04 01:33:00,
2013-01-03 20:42:00,28.0,23.0,30.13,WNW,299,0.0,5.0,82,0.00,,,0.00,,2013-01-04 01:42:00,
2013-01-03 20:53:00,28.0,23.0,30.14,West,277,2.0,4.0,80,0.00,,,0.00,,2013-01-04 01:53:00,
2013-01-03 21:02:00,28.0,23.0,30.14,NNW,331,6.0,9.0,80,0.00,,,0.00,,2013-01-04 02:02:00,
2013-01-03 21:12:00,28.0,23.0,30.14,NNW,331,6.0,9.0,80,0.00,,,0.00,,2013-01-04 02:12:00,
2013-01-03 21:22:00,28.0,22.0,30.13,NW,320,1.0,12.0,79,0.00,,,0.00,,2013-01-04 02:22:00,
2013-01-03 21:33:00,28.0,22.0,30.13,WNW,299,6.0,10.0,79,0.00,,,0.00,,2013-01-04 02:33:00,
2013-01-03 21:42:00,28.0,22.0,30.13,WNW,299,6.0,10.0,79,0.00,,,0.00,,2013-01-04 02:42:00,
2013-01-03 21:53:00,28.0,22.0,30.13,NW,321,1.0,11.0,79,0.00,,,0.00,,2013-01-04 02:53:00,
2013-01-03 22:03:00,28.0,23.0,30.13,NNW,329,1.0,9.0,80,0.00,,,0.00,,2013-01-04 03:03:00,
2013-01-03 22:12:00,28.0,23.0,30.13,NNW,329,1.0,9.0,80,0.00,,,0.00,,2013-01-04 03:12:00,
2013-01-03 22:22:00,28.0,23.0,30.12,NNE,24,2.0,6.0,81,0.00,,,0.00,,2013-01-04 03:22:00,
2013-01-03 22:32:00,28.0,23.0,30.12,NNW,339,3.0,5.0,82,0.00,,,0.00,,2013-01-04 03:32:00,
2013-01-03 22:42:00,28.0,23.0,30.12,NNW,339,3.0,5.0,82,0.00,,,0.00,,2013-01-04 03:42:00,
2013-01-03 22:53:00,28.0,23.0,30.11,NW,315,1.0,6.0,82,0.00,,,0.00,,2013-01-04 03:53:00,
2013-01-03 23:02:00,28.0,23.0,30.11,WNW,288,3.0,6.0,82,0.00,,,0.00,,2013-01-04 04:02:00,
2013-01-03 23:12:00,28.0,23.0,30.11,WNW,288,3.0,6.0,82,0.00,,,0.00,,2013-01-04 04:12:00,
2013-01-03 23:22:00,28.0,23.0,30.11,West,274,0.0,5.0,82,0.00,,,0.00,,2013-01-04 04:22:00,
2013-01-03 23:32:00,28.0,23.0,30.11,SW,232,2.0,5.0,82,0.00,,,0.00,,2013-01-04 04:32:00,
2013-01-03 23:42:00,28.0,23.0,30.11,SW,232,2.0,5.0,82,0.00,,,0.00,,2013-01-04 04:42:00,
2013-01-03 23:53:00,28.0,23.0,30.11,WNW,302,1.0,4.0,82,0.00,,,0.00,,2013-01-04 04:53:00,